This demonstration page uses our WeatherBlox Daily Observations layout. Learn more.

Left ArrowRight Arrow

39.92423, -83.80882

Hourly Observations for January 24, 2019

Temp ( °F °C ) Dew Point ( °F °C ) Humidity (%) Winds ( mph kmh ) Pressure ( in mb ) Visibility ( mi km ) Precip ( " mm )
12:05 am 00:05 Cloudy with Light Snow 30 -1 30 -1 100 100 WNW 15 24 29.77 1008 3 4 N/A
12:39 am 00:39 Cloudy with Light Snow 30 -1 30 -1 100 100 NW 14 22 29.77 1008 2 3 0.01 0.25
12:56 am 00:56 Cloudy with Light Snow 30 -1.1 30 -1.1 100 100 NW 13 20 29.72 1007 2 3 0.01 0.25
1:31 am 01:31 Cloudy with Light Snow 30 -1 30 -1 100 100 NW 14 22 29.77 1008 2 3 0.01 0.25
1:56 am 01:56 Cloudy with Light Snow 29 -1.7 29 -1.7 100 100 NW 9 15 29.72 1007 2 2 0.02 0.51
2:52 am 02:52 Cloudy with Light Snow 28 -2 28 -2 100 100 NW 14 22 29.77 1008 2 3 N/A
2:56 am 02:56 Cloudy with Light Snow 29 -1.7 29 -1.7 100 100 NW 12 19 29.72 1007 2 3 N/A
3:05 am 03:05 Cloudy with Light Snow 28 -2 28 -2 100 100 NW 16 26 29.77 1008 2 3 N/A
3:48 am 03:48 Cloudy with Mist and Fog 28 -2 28 -2 100 100 NW 15 24 29.77 1008 2 3 N/A
3:56 am 03:56 Cloudy with Mist and Fog 29 -1.7 29 -1.7 100 100 NW 16 26 29.74 1007 3 4 N/A
4:56 am 04:56 Cloudy with Light Snow 28 -2.2 28 -2.2 100 100 WNW 14 22 29.75 1008 3 4 N/A
5:19 am 05:19 Cloudy with Mist and Fog 28 -2 28 -2 100 100 NW 16 26 29.77 1008 3 5 N/A
5:56 am 05:56 Cloudy with Mist and Fog 28 -2.2 27 -2.8 96 96 NW 15 24 29.76 1008 4 6 N/A
6:22 am 06:22 Cloudy with Light Snow 27 -3 27 -3 100 100 WNW 15 24 29.80 1009 5 8 N/A
6:37 am 06:37 Cloudy 27 -3 27 -3 100 100 WNW 16 26 29.80 1009 7 11 N/A
6:56 am 06:56 Cloudy with Light Snow 27 -2.8 26 -3.3 96 96 WNW 13 20 29.79 1009 7 11 N/A
7:16 am 07:16 Cloudy 27 -3 27 -3 100 100 WNW 10 17 29.83 1010 9 14 N/A
7:24 am 07:24 Cloudy 27 -3 27 -3 100 100 W 15 24 29.83 1010 9 14 N/A
7:56 am 07:56 Cloudy 27 -2.8 25 -3.9 92 92 WNW 14 22 29.82 1010 10 16 N/A
8:56 am 08:56 Cloudy with Light Snow 26 -3.3 24 -4.4 92 92 NW 12 19 29.84 1011 7 11 N/A
9:56 am 09:56 Cloudy with Light Snow 25 -3.9 23 -5 92 92 W 15 24 29.88 1012 6 10 N/A
10:51 am 10:51 Cloudy with Light Snow 25 -4 23 -5 93 93 W 13 20 29.91 1013 4 6 N/A
10:56 am 10:56 Cloudy with Light Snow 25 -3.9 23 -5 92 92 WNW 13 20 29.91 1013 3 5 N/A
11:38 am 11:38 Cloudy with Light Snow 25 -4 23 -5 93 93 W 10 17 29.91 1013 7 11 N/A
11:56 am 11:56 Cloudy 25 -3.9 22 -5.6 88 88 W 12 19 29.91 1013 9 14 N/A
12:26 pm 12:26 Cloudy 25 -4 21 -6 86 86 WSW 14 22 29.91 1013 10 16 N/A
12:36 pm 12:36 Cloudy 25 -4 21 -6 86 86 W 14 22 29.91 1013 10 16 N/A
12:48 pm 12:48 Cloudy 25 -4 21 -6 86 86 WSW 9 15 29.88 1012 10 16 N/A
12:56 pm 12:56 Cloudy 25 -3.9 22 -5.6 88 88 W 10 17 29.88 1012 10 16 N/A
1:03 pm 13:03 Cloudy 25 -4 21 -6 86 86 W 13 20 29.88 1012 10 16 N/A
1:56 pm 13:56 Cloudy 24 -4.4 21 -6.1 88 88 W 20 31 29.89 1012 10 16 N/A
2:56 pm 14:56 Cloudy 24 -4.4 20 -6.7 84 84 W 15 24 29.89 1012 10 16 N/A
3:03 pm 15:03 Cloudy 25 -4 19 -7 80 80 WSW 13 20 29.91 1013 10 16 N/A
3:28 pm 15:28 Cloudy 25 -4 21 -6 86 86 WSW 14 22 29.91 1013 10 16 N/A
3:36 pm 15:36 Cloudy 25 -4 19 -7 80 80 WSW 16 26 29.91 1013 10 16 N/A
3:56 pm 15:56 Cloudy 25 -3.9 21 -6.1 85 85 WSW 17 28 29.91 1013 10 16 N/A
4:56 pm 16:56 Cloudy 25 -3.9 21 -6.1 85 85 WSW 14 22 29.93 1013 10 16 N/A
5:56 pm 17:56 Cloudy 25 -3.9 21 -6.1 85 85 SW 10 17 29.94 1014 10 16 N/A
7:56 pm 19:56 Cloudy with Light Snow 27 -2.8 24 -4.4 89 89 WSW 13 20 29.98 1015 9 14 N/A
8:56 pm 20:56 Windy with Snow Likely 27 -2.8 24 -4.4 89 89 W 20 31 29.99 1016 9 14 N/A
9:56 pm 21:56 Cloudy with Light Snow 26 -3.3 21 -6.1 81 81 W 17 28 30.02 1017 9 14 N/A
10:43 pm 22:43 Cloudy with Light Snow 25 -4 18 -8 74 74 W 17 28 30.03 1017 9 14 N/A
10:56 pm 22:56 Cloudy with Light Snow 24 -4.4 18 -7.8 77 77 W 17 28 30.02 1017 9 14 N/A
11:25 pm 23:25 Cloudy with Light Snow 25 -4 19 -7 80 80 W 18 30 30.03 1017 9 14 N/A
11:33 pm 23:33 Cloudy with Light Snow 25 -4 19 -7 80 80 WSW 17 28 30.03 1017 9 14 N/A
11:56 pm 23:56 Cloudy with Light Snow 24 -4.4 20 -6.7 84 84 W 15 24 30.03 1017 9 14 N/A

Powered by AerisWeather